"read_dt","SO2 (ppb)","flags","PMT voltage (V)","lamp voltage (V)","lamp intensity (Hz)","internal temp (C)","react chamber temp (C)","sample flow (l/min)","pres (mmHg)","SO2 bkg (ppb)","SO2 coefficient"
2014-04-27 00:00:00,3008E-2,5C000800,-0724,1027,10295,021.9,045.1,0.670,757.0,01.16,0.508
2014-04-27 00:01:00,2990E-2,5C000800,-0724,1026,10241,021.9,045.1,0.669,756.9,01.16,0.508
2014-04-27 00:02:00,3000E-2,5C000800,-0724,1026,10234,021.9,045.1,0.670,756.9,01.16,0.508
2014-04-27 00:03:00,2954E-2,5C000800,-0724,1026,10342,021.9,045.1,0.670,756.9,01.16,0.508
2014-04-27 00:04:00,2999E-2,5C000800,-0724,1025,10272,021.9,045.1,0.670,756.9,01.16,0.508
2014-04-27 00:05:00,3014E-2,5C000800,-0724,1026,10151,021.9,045.1,0.670,756.9,01.16,0.508
2014-04-27 00:06:00,2950E-2,5C000800,-0724,1026,10277,021.9,045.1,0.670,756.9,01.16,0.508
2014-04-27 00:07:00,2955E-2,5C000800,-0724,1027,10210,021.9,045.1,0.671,756.9,01.16,0.508
2014-04-27 00:08:00,3010E-2,5C000800,-0724,1025,10344,021.9,045.1,0.671,756.9,01.16,0.508
2014-04-27 00:09:00,2930E-2,5C000800,-0724,1025,10269,021.9,045.1,0.671,756.9,01.16,0.508
2014-04-27 00:10:00,2954E-2,5C000800,-0724,1026,10256,021.9,045.1,0.671,757.0,01.16,0.508
2014-04-27 00:11:00,2959E-2,5C000800,-0724,1024,10395,021.9,045.1,0.670,756.8,01.16,0.508
2014-04-27 00:12:00,2928E-2,5C000800,-0724,1025,10272,021.9,045.1,0.671,756.9,01.16,0.508
2014-04-27 00:13:00,2954E-2,5C000800,-0724,1024,10252,021.9,045.1,0.671,756.9,01.16,0.508
2014-04-27 00:14:00,2977E-2,5C000800,-0724,1022,10358,021.9,045.1,0.671,756.9,01.16,0.508
2014-04-27 00:15:00,2956E-2,5C000800,-0724,1024,10226,021.9,045.1,0.670,756.9,01.16,0.508
2014-04-27 00:16:00,2968E-2,5C000800,-0724,1023,10275,021.9,045.1,0.671,756.9,01.16,0.508
2014-04-27 00:17:00,2950E-2,5C000800,-0724,1023,10382,021.9,045.2,0.671,756.9,01.16,0.508
2014-04-27 00:18:00,2985E-2,5C000800,-0724,1023,10326,021.9,045.1,0.672,756.8,01.16,0.508
2014-04-27 00:19:00,3010E-2,5C000800,-0724,1024,10302,021.9,045.1,0.671,756.8,01.16,0.508
2014-04-27 00:20:00,2927E-2,5C000800,-0724,1023,10085,021.9,045.1,0.672,756.9,01.16,0.508
2014-04-27 00:21:00,2940E-2,5C000800,-0724,1024,10295,021.9,045.1,0.672,756.9,01.16,0.508
2014-04-27 00:22:00,2930E-2,5C000800,-0724,1024,10141,021.9,045.1,0.672,756.9,01.16,0.508
2014-04-27 00:23:00,2946E-2,5C000800,-0724,1022,10477,021.9,045.1,0.672,756.9,01.16,0.508
2014-04-27 00:24:00,2959E-2,5C000800,-0724,1022,10384,021.9,045.1,0.673,756.9,01.16,0.508
2014-04-27 00:25:00,2956E-2,5C000800,-0724,1022,10339,021.9,045.1,0.673,756.9,01.16,0.508
2014-04-27 00:26:00,2986E-2,5C000800,-0724,1022,10261,021.9,045.1,0.672,756.8,01.16,0.508
2014-04-27 00:27:00,2942E-2,5C000800,-0724,1022,10377,021.9,045.1,0.672,756.8,01.16,0.508
2014-04-27 00:28:00,3006E-2,5C000800,-0724,1020,10166,021.9,045.1,0.672,756.8,01.16,0.508
2014-04-27 00:29:00,2961E-2,5C000800,-0724,1021,10386,021.9,045.1,0.675,756.9,01.16,0.508
2014-04-27 00:30:00,2930E-2,5C000800,-0724,1021,10315,021.9,045.1,0.674,756.9,01.16,0.508
2014-04-27 00:31:00,2964E-2,5C000800,-0724,1021,10282,021.9,045.1,0.673,756.9,01.16,0.508
2014-04-27 00:32:00,2995E-2,5C000800,-0724,1020,10196,022.0,045.1,0.674,756.9,01.16,0.508
2014-04-27 00:33:00,2966E-2,5C000800,-0724,1021,10526,022.0,045.1,0.673,756.8,01.16,0.508
2014-04-27 00:34:00,2954E-2,5C000800,-0724,1022,10278,021.9,045.1,0.674,756.9,01.16,0.508
2014-04-27 00:35:00,2972E-2,5C000800,-0724,1021,10357,022.0,045.1,0.673,756.9,01.16,0.508
2014-04-27 00:36:00,2920E-2,5C000800,-0724,1020,10339,022.0,045.1,0.673,756.8,01.16,0.508
2014-04-27 00:37:00,2978E-2,5C000800,-0724,1020,10313,021.9,045.1,0.673,756.7,01.16,0.508
2014-04-27 00:38:00,2955E-2,5C000800,-0724,1020,10251,021.9,045.1,0.673,756.9,01.16,0.508
2014-04-27 00:39:00,2942E-2,5C000800,-0724,1020,10355,021.9,045.1,0.673,756.9,01.16,0.508
2014-04-27 00:40:00,2984E-2,5C000800,-0724,1020,10331,021.9,045.1,0.672,756.8,01.16,0.508
2014-04-27 00:41:00,2961E-2,5C000800,-0724,1020,10432,021.9,045.1,0.672,756.8,01.16,0.508
2014-04-27 00:42:00,2990E-2,5C000800,-0724,1020,10295,021.9,045.1,0.672,756.8,01.16,0.508
2014-04-27 00:43:00,2903E-2,5C000800,-0724,1019,10359,022.0,045.1,0.673,756.9,01.16,0.508
2014-04-27 00:44:00,2941E-2,5C000800,-0724,1019,10265,022.0,045.1,0.672,756.9,01.16,0.508
2014-04-27 00:45:00,2962E-2,5C000800,-0724,1019,10320,022.0,045.1,0.672,756.8,01.16,0.508
2014-04-27 00:46:00,2909E-2,5C000800,-0724,1019,10260,022.0,045.1,0.672,756.7,01.16,0.508
2014-04-27 00:47:00,2926E-2,5C000800,-0724,1018,10102,022.0,045.1,0.672,756.7,01.16,0.508
2014-04-27 00:48:00,2946E-2,5C000800,-0724,1018,10241,022.0,045.1,0.673,756.8,01.16,0.508
2014-04-27 00:49:00,2928E-2,5C000800,-0724,1018,10374,022.0,045.1,0.673,756.8,01.16,0.508
2014-04-27 00:50:00,2915E-2,5C000800,-0724,1018,10330,021.9,045.1,0.672,756.8,01.16,0.508
2014-04-27 00:51:00,2938E-2,5C000800,-0724,1020,10516,022.0,045.1,0.672,756.8,01.16,0.508
2014-04-27 00:52:00,2921E-2,5C000800,-0724,1019,10364,022.0,045.1,0.672,756.8,01.16,0.508
2014-04-27 00:53:00,2938E-2,5C000800,-0724,1018,10411,022.0,045.1,0.671,756.8,01.16,0.508
2014-04-27 00:54:00,2903E-2,5C000800,-0724,1017,10379,022.0,045.1,0.671,756.8,01.16,0.508
2014-04-27 00:55:00,2930E-2,5C000800,-0724,1018,10296,022.0,045.1,0.671,756.8,01.16,0.508
2014-04-27 00:56:00,2972E-2,5C000800,-0724,1018,10402,022.0,045.1,0.671,756.8,01.16,0.508
2014-04-27 00:57:00,2947E-2,5C000800,-0724,1017,10419,022.0,045.1,0.671,756.8,01.16,0.508
2014-04-27 00:58:00,3000E-2,5C000800,-0724,1018,10433,022.0,045.1,0.670,756.8,01.16,0.508
2014-04-27 00:59:00,2924E-2,5C000800,-0724,1017,10381,022.0,045.1,0.670,756.8,01.16,0.508
2014-04-27 01:00:00,2918E-2,5C000800,-0724,1018,10363,022.0,045.1,0.670,756.8,01.16,0.508
2014-04-27 01:01:00,2864E-2,5C000800,-0724,1016,10374,022.0,045.1,0.670,756.8,01.16,0.508
2014-04-27 01:02:00,2874E-2,5C000800,-0724,1017,10286,022.0,045.1,0.670,756.9,01.16,0.508
2014-04-27 01:03:00,2878E-2,5C000800,-0724,1015,10299,022.0,045.1,0.670,756.8,01.16,0.508
2014-04-27 01:04:00,2824E-2,5C000800,-0724,1015,10555,022.0,045.1,0.670,756.8,01.16,0.508
2014-04-27 01:05:00,2816E-2,5C000800,-0724,1015,10292,022.0,045.1,0.670,756.8,01.16,0.508
2014-04-27 01:06:00,2850E-2,5C000800,-0724,1016,10340,022.0,045.1,0.670,756.9,01.16,0.508
2014-04-27 01:07:00,2805E-2,5C000800,-0724,1016,10399,022.0,045.1,0.670,756.8,01.16,0.508
2014-04-27 01:08:00,2790E-2,5C000800,-0724,1015,10426,022.0,045.1,0.670,756.8,01.16,0.508
2014-04-27 01:09:00,2855E-2,5C000800,-0724,1015,10277,022.0,045.1,0.669,756.8,01.16,0.508
2014-04-27 01:10:00,2869E-2,5C000800,-0724,1015,10333,022.0,045.1,0.669,756.8,01.16,0.508
2014-04-27 01:11:00,2840E-2,5C000800,-0724,1015,10297,022.0,045.1,0.670,756.8,01.16,0.508
2014-04-27 01:12:00,2813E-2,5C000800,-0724,1015,10515,022.0,045.1,0.670,756.9,01.16,0.508
2014-04-27 01:13:00,2871E-2,5C000800,-0724,1014,10336,022.0,045.1,0.670,756.9,01.16,0.508
2014-04-27 01:14:00,2820E-2,5C000800,-0724,1015,10503,022.0,045.1,0.669,756.8,01.16,0.508
2014-04-27 01:15:00,2809E-2,5C000800,-0724,1014,10231,022.0,045.1,0.669,756.7,01.16,0.508
2014-04-27 01:16:00,2853E-2,5C000800,-0724,1014,10409,022.0,045.1,0.669,756.8,01.16,0.508
2014-04-27 01:17:00,2841E-2,5C000800,-0724,1016,10310,022.0,045.1,0.668,756.7,01.16,0.508
2014-04-27 01:18:00,2854E-2,5C000800,-0724,1014,10385,022.0,045.1,0.668,756.8,01.16,0.508
2014-04-27 01:19:00,2819E-2,5C000800,-0724,1014,10516,022.0,045.1,0.668,756.7,01.16,0.508
2014-04-27 01:20:00,2855E-2,5C000800,-0724,1014,10282,022.0,045.1,0.667,756.7,01.16,0.508
2014-04-27 01:21:00,2864E-2,5C000800,-0724,1014,10298,022.0,045.1,0.667,756.8,01.16,0.508
2014-04-27 01:22:00,2822E-2,5C000800,-0724,1014,10338,022.0,045.1,0.668,756.8,01.16,0.508
2014-04-27 01:23:00,2812E-2,5C000800,-0724,1014,10323,022.0,045.2,0.667,756.7,01.16,0.508
2014-04-27 01:24:00,2831E-2,5C000800,-0724,1014,10447,022.1,045.1,0.667,756.8,01.16,0.508
2014-04-27 01:25:00,2857E-2,5C000800,-0724,1014,10310,022.1,045.1,0.667,756.7,01.16,0.508
2014-04-27 01:26:00,2816E-2,5C000800,-0724,1015,10465,022.1,045.1,0.667,756.7,01.16,0.508
2014-04-27 01:27:00,2857E-2,5C000800,-0724,1014,10434,022.0,045.1,0.667,756.8,01.16,0.508
2014-04-27 01:28:00,2864E-2,5C000800,-0724,1016,10392,022.0,045.2,0.667,756.8,01.16,0.508
2014-04-27 01:29:00,2864E-2,5C000800,-0724,1012,10352,022.1,045.1,0.667,756.7,01.16,0.508
2014-04-27 01:30:00,2881E-2,5C000800,-0724,1013,10556,022.1,045.1,0.667,756.7,01.16,0.508
2014-04-27 01:31:00,2822E-2,5C000800,-0724,1013,10056,022.1,045.1,0.667,756.8,01.16,0.508
2014-04-27 01:32:00,2862E-2,5C000800,-0724,1013,10505,022.1,045.1,0.666,756.8,01.16,0.508
2014-04-27 01:33:00,2833E-2,5C000800,-0724,1012,10377,022.1,045.1,0.666,756.7,01.16,0.508
2014-04-27 01:34:00,2844E-2,5C000800,-0724,1012,10106,022.1,045.1,0.666,756.7,01.16,0.508
2014-04-27 01:35:00,2851E-2,5C000800,-0724,1012,10402,022.1,045.1,0.666,756.7,01.16,0.508
2014-04-27 01:36:00,2881E-2,5C000800,-0724,1013,10443,022.1,045.1,0.666,756.7,01.16,0.508
2014-04-27 01:37:00,2845E-2,5C000800,-0724,1011,10313,022.1,045.1,0.666,756.7,01.16,0.508
2014-04-27 01:38:00,2863E-2,5C000800,-0724,1012,10426,022.1,045.1,0.666,756.7,01.16,0.508
2014-04-27 01:39:00,2892E-2,5C000800,-0724,1011,10293,022.1,045.1,0.666,756.7,01.16,0.508
2014-04-27 01:40:00,2886E-2,5C000800,-0724,1012,10544,022.1,045.1,0.666,756.7,01.16,0.508
2014-04-27 01:41:00,2896E-2,5C000800,-0724,1012,10335,022.1,045.1,0.666,756.7,01.16,0.508
2014-04-27 01:42:00,2860E-2,5C000800,-0724,1011,10422,022.1,045.1,0.665,756.6,01.16,0.508
2014-04-27 01:43:00,2880E-2,5C000800,-0724,1012,10504,022.1,045.1,0.666,756.7,01.16,0.508
2014-04-27 01:44:00,2875E-2,5C000800,-0724,1013,10439,022.1,045.1,0.665,756.7,01.16,0.508
2014-04-27 01:45:00,2885E-2,5C000800,-0724,1012,10353,022.1,045.1,0.665,756.7,01.16,0.508
2014-04-27 01:46:00,2889E-2,5C000800,-0724,1011,10452,022.1,045.1,0.665,756.7,01.16,0.508
2014-04-27 01:47:00,2868E-2,5C000800,-0724,1012,10333,022.1,045.1,0.665,756.7,01.16,0.508
2014-04-27 01:48:00,2858E-2,5C000800,-0724,1011,10258,022.1,045.1,0.665,756.7,01.16,0.508
2014-04-27 01:49:00,2854E-2,5C000800,-0724,1013,10402,022.1,045.1,0.665,756.8,01.16,0.508
2014-04-27 01:50:00,2918E-2,5C000800,-0724,1012,10505,022.1,045.1,0.665,756.7,01.16,0.508
2014-04-27 01:51:00,2847E-2,5C000800,-0724,1012,10222,022.1,045.1,0.665,756.6,01.16,0.508
2014-04-27 01:52:00,2922E-2,5C000800,-0724,1012,10466,022.1,045.1,0.665,756.7,01.16,0.508
2014-04-27 01:53:00,2897E-2,5C000800,-0724,1012,10357,022.1,045.1,0.665,756.7,01.16,0.508
2014-04-27 01:54:00,2944E-2,5C000800,-0724,1012,10419,022.1,045.1,0.664,756.6,01.16,0.508
2014-04-27 01:55:00,2898E-2,5C000800,-0724,1012,10336,022.1,045.1,0.664,756.7,01.16,0.508
2014-04-27 01:56:00,2907E-2,5C000800,-0724,1013,10350,022.1,045.1,0.664,756.7,01.16,0.508
2014-04-27 01:57:00,2867E-2,5C000800,-0724,1011,10542,022.2,045.1,0.664,756.5,01.16,0.508
2014-04-27 01:58:00,2879E-2,5C000800,-0724,1011,10485,022.2,045.1,0.664,756.7,01.16,0.508
2014-04-27 01:59:00,2885E-2,5C000800,-0724,1011,10488,022.1,045.1,0.664,756.7,01.16,0.508
2014-04-27 02:00:00,2880E-2,5C000800,-0724,1012,10392,022.1,045.1,0.663,756.6,01.16,0.508
2014-04-27 02:01:00,2911E-2,5C000800,-0724,1012,10410,022.1,045.1,0.663,756.7,01.16,0.508
2014-04-27 02:02:00,2896E-2,5C000800,-0724,1010,10425,022.1,045.1,0.663,756.7,01.16,0.508
2014-04-27 02:03:00,2904E-2,5C000800,-0724,1011,10402,022.2,045.1,0.664,756.7,01.16,0.508
2014-04-27 02:04:00,2892E-2,5C000800,-0724,1011,10220,022.2,045.1,0.663,756.6,01.16,0.508
2014-04-27 02:05:00,2955E-2,5C000800,-0724,1011,10412,022.2,045.1,0.663,756.6,01.16,0.508
2014-04-27 02:06:00,2901E-2,5C000800,-0724,1012,10343,022.2,045.1,0.664,756.7,01.16,0.508
2014-04-27 02:07:00,2934E-2,5C000800,-0724,1012,10437,022.2,045.1,0.663,756.7,01.16,0.508
2014-04-27 02:08:00,2924E-2,5C000800,-0724,1012,10395,022.2,045.1,0.663,756.6,01.16,0.508
2014-04-27 02:09:00,2941E-2,5C000800,-0724,1015,10224,022.2,045.1,0.663,756.6,01.16,0.508
2014-04-27 02:10:00,2998E-2,5C000800,-0724,1016,10283,022.2,045.1,0.662,756.6,01.16,0.508
2014-04-27 02:11:00,2931E-2,5C000800,-0724,1018,10271,022.2,045.1,0.662,756.6,01.16,0.508
2014-04-27 02:12:00,2974E-2,5C000800,-0724,1017,10267,022.2,045.2,0.662,756.5,01.16,0.508
2014-04-27 02:13:00,2996E-2,5C000800,-0724,1018,10296,022.2,045.1,0.661,756.4,01.16,0.508
2014-04-27 02:14:00,2952E-2,5C000800,-0724,1019,10477,022.2,045.1,0.662,756.4,01.16,0.508
2014-04-27 02:15:00,3026E-2,5C000800,-0724,1019,10369,022.2,045.1,0.662,756.5,01.16,0.508
2014-04-27 02:16:00,2924E-2,5C000800,-0724,1018,10351,022.2,045.1,0.662,756.4,01.16,0.508
2014-04-27 02:17:00,2911E-2,5C000800,-0724,1018,10275,022.2,045.1,0.662,756.4,01.16,0.508
2014-04-27 02:18:00,2893E-2,5C000800,-0724,1018,10419,022.2,045.1,0.662,756.5,01.16,0.508
2014-04-27 02:19:00,2887E-2,5C000800,-0724,1020,10343,022.2,045.1,0.662,756.5,01.16,0.508
2014-04-27 02:20:00,2927E-2,5C000800,-0724,1019,10465,022.2,045.1,0.662,756.5,01.16,0.508
2014-04-27 02:21:00,2948E-2,5C000800,-0724,1018,10302,022.2,045.1,0.661,756.4,01.16,0.508
2014-04-27 02:22:00,2931E-2,5C000800,-0724,1019,10560,022.2,045.1,0.661,756.4,01.16,0.508
2014-04-27 02:23:00,2770E-2,5C000800,-0724,1015,10305,022.2,045.1,0.661,756.4,01.16,0.508
2014-04-27 02:24:00,2748E-2,5C000800,-0724,1017,10274,022.2,045.1,0.662,756.5,01.16,0.508
2014-04-27 02:25:00,2764E-2,5C000800,-0724,1017,10462,022.2,045.1,0.662,756.6,01.16,0.508
2014-04-27 02:26:00,2781E-2,5C000800,-0724,1017,10455,022.2,045.1,0.661,756.5,01.16,0.508
2014-04-27 02:27:00,2718E-2,5C000800,-0724,1016,10374,022.2,045.1,0.661,756.5,01.16,0.508
2014-04-27 02:28:00,2694E-2,5C000800,-0724,1018,10381,022.2,045.1,0.661,756.5,01.16,0.508
2014-04-27 02:29:00,2675E-2,5C000800,-0724,1022,10278,022.2,045.1,0.661,756.5,01.16,0.508
2014-04-27 02:30:00,2653E-2,5C000800,-0724,1022,10341,022.2,045.1,0.661,756.5,01.16,0.508
2014-04-27 02:31:00,2638E-2,5C000800,-0724,1022,10426,022.2,045.1,0.661,756.6,01.16,0.508
2014-04-27 02:32:00,2666E-2,5C000800,-0724,1022,10394,022.2,045.1,0.662,756.6,01.16,0.508
2014-04-27 02:33:00,2658E-2,5C000800,-0724,1021,10208,022.2,045.1,0.662,756.6,01.16,0.508
2014-04-27 02:34:00,2649E-2,5C000800,-0724,1021,10281,022.2,045.1,0.661,756.6,01.16,0.508
2014-04-27 02:35:00,2644E-2,5C000800,-0724,1022,10425,022.2,045.1,0.662,756.6,01.16,0.508
2014-04-27 02:36:00,2681E-2,5C000800,-0724,1020,10262,022.2,045.1,0.661,756.5,01.16,0.508
2014-04-27 02:37:00,2652E-2,5C000800,-0724,1021,10418,022.2,045.1,0.660,756.5,01.16,0.508
2014-04-27 02:38:00,2680E-2,5C000800,-0724,1021,10360,022.2,045.1,0.660,756.5,01.16,0.508
2014-04-27 02:39:00,2630E-2,5C000800,-0724,1022,10340,022.2,045.1,0.661,756.5,01.16,0.508
2014-04-27 02:40:00,2657E-2,5C000800,-0724,1021,10388,022.2,045.1,0.660,756.5,01.16,0.508
2014-04-27 02:41:00,2650E-2,5C000800,-0724,1021,10252,022.3,045.1,0.661,756.6,01.16,0.508
2014-04-27 02:42:00,2634E-2,5C000800,-0724,1022,10399,022.3,045.1,0.661,756.6,01.16,0.508
2014-04-27 02:43:00,2671E-2,5C000800,-0724,1021,10137,022.2,045.1,0.661,756.5,01.16,0.508
2014-04-27 02:44:00,2638E-2,5C000800,-0724,1021,10279,022.3,045.1,0.661,756.6,01.16,0.508
2014-04-27 02:45:00,2678E-2,5C000800,-0724,1022,10236,022.3,045.1,0.661,756.5,01.16,0.508
2014-04-27 02:46:00,2656E-2,5C000800,-0724,1023,10506,022.3,045.1,0.661,756.6,01.16,0.508
2014-04-27 02:47:00,2649E-2,5C000800,-0724,1021,10248,022.3,045.1,0.660,756.6,01.16,0.508
2014-04-27 02:48:00,2676E-2,5C000800,-0724,1021,10167,022.3,045.1,0.662,756.6,01.16,0.508
2014-04-27 02:49:00,2711E-2,5C000800,-0724,1021,10212,022.3,045.1,0.660,756.5,01.16,0.508
2014-04-27 02:50:00,2684E-2,5C000800,-0724,1020,10297,022.3,045.1,0.661,756.5,01.16,0.508
2014-04-27 02:51:00,2677E-2,5C000800,-0724,1021,10313,022.3,045.1,0.661,756.6,01.16,0.508
2014-04-27 02:52:00,2623E-2,5C000800,-0724,1020,10339,022.3,045.1,0.660,756.6,01.16,0.508
2014-04-27 02:53:00,2681E-2,5C000800,-0724,1020,10299,022.3,045.1,0.660,756.6,01.16,0.508
2014-04-27 02:54:00,2669E-2,5C000800,-0724,1019,10450,022.3,045.1,0.660,756.6,01.16,0.508
2014-04-27 02:55:00,2659E-2,5C000800,-0724,1020,10427,022.3,045.1,0.660,756.6,01.16,0.508
2014-04-27 02:56:00,2728E-2,5C000800,-0724,1028,10150,022.3,045.1,0.661,756.6,01.16,0.508
2014-04-27 02:57:00,2898E-2,5C000800,-0724,1032,10233,022.3,045.1,0.661,756.7,01.16,0.508
2014-04-27 02:58:00,2911E-2,5C000800,-0724,1032,10061,022.3,045.1,0.661,756.6,01.16,0.508
2014-04-27 02:59:00,2902E-2,5C000800,-0724,1032,10258,022.3,045.2,0.659,756.6,01.16,0.508
2014-04-27 03:00:00,2913E-2,5C000800,-0724,1032,10136,022.3,045.1,0.661,756.6,01.16,0.508
2014-04-27 03:01:00,2869E-2,5C000800,-0724,1033,10264,022.3,045.1,0.660,756.6,01.16,0.508
2014-04-27 03:02:00,2851E-2,5C000800,-0724,1033,10118,022.3,045.1,0.661,756.6,01.16,0.508
2014-04-27 03:03:00,2867E-2,5C000800,-0724,1032,10189,022.3,045.2,0.661,756.6,01.16,0.508
2014-04-27 03:04:00,2909E-2,5C000800,-0724,1033,10254,022.3,045.2,0.660,756.6,01.16,0.508
2014-04-27 03:05:00,2889E-2,5C000800,-0724,1032,10224,022.3,045.1,0.661,756.6,01.16,0.508
2014-04-27 03:06:00,2852E-2,5C000800,-0724,1031,10234,022.3,045.1,0.661,756.6,01.16,0.508
2014-04-27 03:07:00,2845E-2,5C000800,-0724,1033,10056,022.3,045.1,0.661,756.6,01.16,0.508
2014-04-27 03:08:00,2879E-2,5C000800,-0724,1031,10312,022.3,045.1,0.660,756.6,01.16,0.508
2014-04-27 03:09:00,2869E-2,5C000800,-0724,1031,10355,022.3,045.1,0.661,756.7,01.16,0.508
2014-04-27 03:10:00,2879E-2,5C000800,-0724,1031,10306,022.3,045.1,0.661,756.6,01.16,0.508
2014-04-27 03:11:00,2901E-2,5C000800,-0724,1031,10146,022.3,045.1,0.660,756.6,01.16,0.508
2014-04-27 03:12:00,2863E-2,5C000800,-0724,1032,10145,022.3,045.1,0.660,756.6,01.16,0.508
2014-04-27 03:13:00,2867E-2,5C000800,-0724,1031,10193,022.3,045.1,0.660,756.6,01.16,0.508
2014-04-27 03:14:00,2913E-2,5C000800,-0724,1032,10167,022.3,045.1,0.661,756.6,01.16,0.508
2014-04-27 03:15:00,2856E-2,5C000800,-0724,1031,10132,022.3,045.1,0.661,756.8,01.16,0.508
2014-04-27 03:16:00,2899E-2,5C000800,-0724,1030,10323,022.3,045.1,0.659,756.6,01.16,0.508
2014-04-27 03:17:00,2874E-2,5C000800,-0724,1031,10194,022.3,045.1,0.655,756.5,01.16,0.508
2014-04-27 03:18:00,2898E-2,5C000800,-0724,1030,10301,022.3,045.1,0.657,756.6,01.16,0.508
2014-04-27 03:19:00,2838E-2,5C000800,-0724,1030,10094,022.3,045.1,0.658,756.6,01.16,0.508
2014-04-27 03:20:00,2878E-2,5C000800,-0724,1031,10424,022.3,045.1,0.657,756.6,01.16,0.508
2014-04-27 03:21:00,2869E-2,5C000800,-0724,1028,10280,022.4,045.1,0.658,756.6,01.16,0.508
2014-04-27 03:22:00,2871E-2,5C000800,-0724,1031,10105,022.3,045.1,0.659,756.6,01.16,0.508
2014-04-27 03:23:00,2877E-2,5C000800,-0724,1029,10289,022.4,045.2,0.659,756.6,01.16,0.508
2014-04-27 03:24:00,2865E-2,5C000800,-0724,1028,10219,022.4,045.1,0.658,756.5,01.16,0.508
2014-04-27 03:25:00,2901E-2,5C000800,-0724,1029,10302,022.3,045.1,0.659,756.6,01.16,0.508
2014-04-27 03:26:00,2904E-2,5C000800,-0724,1029,10154,022.4,045.1,0.657,756.5,01.16,0.508
2014-04-27 03:27:00,2920E-2,5C000810,-0724,1029,10199,022.4,045.1,0.656,756.5,01.16,0.508
2014-04-27 03:28:00,2897E-2,5C000810,-0724,1028,10379,022.4,045.1,0.657,756.5,01.16,0.508
2014-04-27 03:29:00,2903E-2,5C000800,-0724,1028,10098,022.4,045.1,0.655,756.5,01.16,0.508
2014-04-27 03:30:00,2876E-2,5C000800,-0724,1030,10304,022.4,045.2,0.655,756.4,01.16,0.508
2014-04-27 03:31:00,2868E-2,5C000800,-0724,1027,10384,022.4,045.1,0.655,756.5,01.16,0.508
2014-04-27 03:32:00,2906E-2,5C000800,-0724,1029,10190,022.4,045.1,0.653,756.5,01.16,0.508
2014-04-27 03:33:00,2915E-2,5C000800,-0724,1028,10176,022.4,045.1,0.653,756.4,01.16,0.508
2014-04-27 03:34:00,2884E-2,5C000800,-0724,1028,10268,022.3,045.2,0.654,756.5,01.16,0.508
2014-04-27 03:35:00,2900E-2,5C000800,-0724,1027,10263,022.4,045.1,0.653,756.5,01.16,0.508
2014-04-27 03:36:00,2872E-2,5C000800,-0724,1029,10351,022.4,045.1,0.654,756.5,01.16,0.508
2014-04-27 03:37:00,2885E-2,5C000800,-0724,1028,10339,022.4,045.1,0.655,756.4,01.16,0.508
2014-04-27 03:38:00,2931E-2,5C000800,-0724,1028,10123,022.4,045.1,0.655,756.5,01.16,0.508
2014-04-27 03:39:00,2860E-2,5C000800,-0724,1027,10262,022.4,045.1,0.655,756.4,01.16,0.508
2014-04-27 03:40:00,2885E-2,5C000800,-0724,1028,10429,022.4,045.1,0.656,756.5,01.16,0.508
2014-04-27 03:41:00,2892E-2,5C000800,-0724,1029,10274,022.4,045.1,0.652,756.4,01.16,0.508
2014-04-27 03:42:00,2893E-2,5C000800,-0724,1028,10301,022.4,045.1,0.651,756.4,01.16,0.508
2014-04-27 03:43:00,2880E-2,5C000800,-0724,1028,10133,022.4,045.1,0.652,756.4,01.16,0.508
2014-04-27 03:44:00,2958E-2,5C000800,-0724,1027,10127,022.4,045.1,0.653,756.4,01.16,0.508
2014-04-27 03:45:00,2883E-2,5C000800,-0724,1028,10183,022.4,045.1,0.655,756.4,01.16,0.508
2014-04-27 03:46:00,2898E-2,5C000000,-0724,1027,10097,022.4,045.1,0.649,756.3,01.16,0.508
2014-04-27 03:47:00,2921E-2,5C000800,-0724,1027,10198,022.4,045.1,0.651,756.3,01.16,0.508
2014-04-27 03:48:00,2925E-2,5C000000,-0724,1027,10333,022.4,045.1,0.648,756.4,01.16,0.508
2014-04-27 03:49:00,2913E-2,5C000000,-0724,1027,10171,022.4,045.1,0.650,756.3,01.16,0.508
2014-04-27 03:50:00,2943E-2,5C000800,-0724,1028,10234,022.4,045.2,0.651,756.4,01.16,0.508
2014-04-27 03:51:00,2904E-2,5C000800,-0724,1026,10127,022.4,045.1,0.651,756.4,01.16,0.508
2014-04-27 03:52:00,2937E-2,5C000800,-0724,1027,10087,022.4,045.1,0.651,756.3,01.16,0.508
2014-04-27 03:53:00,2924E-2,5C000800,-0724,1028,10375,022.4,045.1,0.651,756.3,01.16,0.508
2014-04-27 03:54:00,2915E-2,5C000010,-0724,1026,9915,022.4,045.1,0.647,756.3,01.16,0.508
2014-04-27 03:55:00,2943E-2,5C000000,-0724,1027,10345,022.4,045.1,0.648,756.3,01.16,0.508
2014-04-27 03:56:00,2923E-2,5C000000,-0724,1027,10184,022.4,045.1,0.650,756.3,01.16,0.508
2014-04-27 03:57:00,2967E-2,5C000800,-0724,1028,10407,022.4,045.1,0.652,756.3,01.16,0.508
2014-04-27 03:58:00,2942E-2,5C000000,-0724,1027,10216,022.4,045.1,0.650,756.3,01.16,0.508
2014-04-27 03:59:00,2940E-2,5C000000,-0724,1028,10313,022.4,045.1,0.648,756.2,01.16,0.508
2014-04-27 04:00:00,2971E-2,5C000000,-0724,1027,10255,022.4,045.1,0.650,756.3,01.16,0.508
2014-04-27 04:01:00,3059E-2,5C000800,-0724,1026,10244,022.4,045.1,0.651,756.3,01.16,0.508
2014-04-27 04:02:00,2989E-2,5C000800,-0724,1027,10230,022.4,045.1,0.651,756.3,01.16,0.508
2014-04-27 04:03:00,3029E-2,5C000000,-0724,1027,10308,022.4,045.1,0.649,756.2,01.16,0.508
2014-04-27 04:04:00,3019E-2,5C000800,-0724,1025,10199,022.4,045.1,0.653,756.3,01.16,0.508
2014-04-27 04:05:00,3070E-2,5C000000,-0724,1027,10255,022.4,045.1,0.650,756.3,01.16,0.508
2014-04-27 04:06:00,3037E-2,5C000800,-0724,1026,10334,022.4,045.1,0.654,756.3,01.16,0.508
2014-04-27 04:07:00,3025E-2,5C000800,-0724,1025,10315,022.4,045.1,0.654,756.3,01.16,0.508
2014-04-27 04:08:00,3034E-2,5C000800,-0724,1026,10218,022.4,045.1,0.651,756.3,01.16,0.508
2014-04-27 04:09:00,3020E-2,5C000800,-0724,1026,10365,022.4,045.1,0.653,756.2,01.16,0.508
2014-04-27 04:10:00,3092E-2,5C000800,-0724,1026,10257,022.4,045.2,0.653,756.3,01.16,0.508
2014-04-27 04:11:00,3077E-2,5C000800,-0724,1025,10326,022.4,045.1,0.653,756.3,01.16,0.508
2014-04-27 04:12:00,3057E-2,5C000800,-0724,1026,10330,022.5,045.1,0.654,756.3,01.16,0.508
2014-04-27 04:13:00,3064E-2,5C000800,-0724,1027,10221,022.4,045.1,0.654,756.3,01.16,0.508
2014-04-27 04:14:00,3055E-2,5C000800,-0724,1027,10254,022.5,045.1,0.654,756.3,01.16,0.508
2014-04-27 04:15:00,3074E-2,5C000800,-0724,1026,10340,022.4,045.1,0.654,756.2,01.16,0.508
2014-04-27 04:16:00,3039E-2,5C000800,-0724,1027,10404,022.4,045.1,0.654,756.3,01.16,0.508
2014-04-27 04:17:00,3071E-2,5C000800,-0724,1027,10181,022.4,045.1,0.654,756.3,01.16,0.508
2014-04-27 04:18:00,3093E-2,5C000800,-0724,1026,10364,022.5,045.1,0.653,756.3,01.16,0.508
2014-04-27 04:19:00,3128E-2,5C000800,-0724,1026,10250,022.5,045.1,0.653,756.2,01.16,0.508
2014-04-27 04:20:00,3066E-2,5C000800,-0724,1027,10240,022.4,045.1,0.653,756.3,01.16,0.508